Theta_e
309 309 309 309 308 308 308 308 308 308 308 308 308 308 308 308 308 308 308 308 308 307 307 308 308 308 308 308 309 309 311 312 313 313 314 314 313 313 313 313 314 313 314 315 313 312 313 312 313 314 316 316 314 314 313 318 321 323 329 325 322 326 324 325 325 321 320 321 324 321 315 314 316 315 312 310 312 314 315 315 314 312 312 312 311 310 310 311
309 309 309 309 309 309 309 309 309 308 308 308 308 308 308 308 308 309 308 308 308 308 308 308 308 308 308 308 309 310 312 314 314 314 314 314 314 315 315 314 314 314 314 315 314 312 314 314 312 314 318 317 314 315 316 317 320 330 329 321 326 331 325 323 324 322 318 317 321 320 315 313 315 314 311 313 317 317 315 315 314 313 314 312 309 308 309 309
310 310 310 310 310 309 309 309 309 309 309 309 308 308 309 309 309 309 309 309 309 309 309 309 309 309 308 309 310 310 312 312 313 315 316 315 315 315 316 315 314 314 314 315 315 312 314 315 311 315 320 317 317 318 319 317 319 328 324 322 331 330 323 320 321 321 317 316 317 319 316 314 314 312 312 313 316 317 316 315 315 316 316 314 312 309 307 309
311 310 310 310 310 310 309 309 309 309 309 309 309 309 309 309 309 309 309 309 309 310 310 310 309 309 309 309 311 311 311 312 312 314 316 315 316 316 317 317 314 314 315 314 314 312 313 312 311 318 319 317 320 319 321 321 319 322 321 326 333 324 320 321 322 320 317 314 314 317 316 315 313 310 312 314 315 316 316 315 315 316 315 315 316 310 305 306
311 310 310 310 310 310 309 309 309 309 309 309 308 308 308 308 309 309 309 309 309 309 310 310 310 310 309 310 311 311 312 315 315 315 316 315 315 316 317 316 314 315 315 313 314 313 312 312 313 320 320 317 319 319 322 322 318 319 320 326 329 320 317 321 323 320 316 314 314 316 316 315 312 310 313 313 314 316 316 316 315 315 315 314 314 311 307 307
310 310 309 309 309 309 309 309 308 308 308 308 308 308 308 308 308 308 308 309 309 309 309 310 310 310 309 310 312 312 313 315 314 315 316 315 314 316 317 315 315 315 315 314 312 312 313 313 313 319 320 317 318 318 320 319 316 319 322 323 324 320 318 321 322 321 317 315 317 317 315 314 312 313 314 313 314 315 315 316 315 314 312 310 309 311 317 318
311 310 310 309 309 309 308 308 308 308 307 308 308 308 308 308 308 309 309 309 308 309 309 309 309 309 309 311 313 314 314 315 313 314 315 314 314 317 317 315 315 315 315 313 312 314 317 316 316 319 320 317 318 319 319 317 315 318 322 322 321 319 318 319 318 320 319 317 317 315 314 315 315 315 313 312 313 314 314 314 314 311 307 306 309 313 317 318
312 311 311 311 310 310 309 310 309 309 309 309 310 310 310 310 310 309 309 309 309 309 309 309 309 307 309 311 314 316 316 315 313 314 314 313 314 316 317 316 316 315 315 313 313 316 317 317 316 316 318 318 317 318 316 315 316 319 320 322 322 319 321 320 317 318 319 317 314 313 315 316 315 313 311 312 313 313 313 312 312 311 308 309 311 312 311 312
313 313 312 312 312 311 311 311 311 311 311 311 311 311 311 311 311 311 311 311 310 310 310 310 309 308 309 311 312 314 315 314 313 313 313 313 315 317 317 316 316 315 314 313 313 313 314 318 317 315 317 319 316 316 316 314 317 321 320 322 322 319 319 318 316 317 318 317 313 312 316 315 312 312 312 312 312 311 312 311 310 310 311 311 310 310 309 309
315 314 313 313 312 312 312 312 312 312 311 311 311 311 311 311 311 312 312 312 311 311 311 310 310 309 310 311 311 313 313 313 314 314 314 314 316 316 316 316 316 315 313 312 311 311 313 316 314 312 315 316 313 313 316 314 316 320 319 319 319 316 314 314 315 315 314 315 313 313 314 313 311 311 311 313 315 312 312 312 311 311 312 311 309 309 307 306
315 314 314 314 313 313 312 312 312 311 311 311 311 311 310 310 310 311 311 312 312 312 312 311 311 309 309 311 313 313 312 314 314 314 315 315 315 316 316 316 315 315 313 310 310 311 312 312 309 309 313 313 312 312 314 314 313 315 314 315 316 314 313 312 313 313 310 311 312 311 311 312 310 310 312 312 314 314 313 314 313 312 312 311 309 308 307 306
314 314 315 314 313 313 313 313 312 312 313 312 312 311 310 310 310 310 311 311 312 311 311 311 311 310 309 310 312 311 310 312 313 314 314 315 315 315 315 315 314 315 314 310 310 311 311 310 310 311 312 312 312 312 312 312 311 312 312 313 315 314 313 312 313 313 310 310 312 310 310 313 312 313 314 310 312 313 313 314 313 312 311 310 309 308 307 306
315 314 314 314 313 313 313 313 314 315 315 314 313 312 312 311 310 310 310 310 310 309 310 311 311 310 309 310 311 310 310 311 311 312 313 314 314 314 314 313 313 313 313 312 311 311 310 310 311 313 311 312 314 310 310 312 311 312 312 313 313 313 313 312 312 312 310 311 313 310 310 316 316 314 313 310 311 313 312 313 312 310 309 309 309 308 308 307
315 314 313 313 313 313 314 315 316 317 316 315 315 314 313 311 310 310 309 309 309 308 309 310 310 309 309 312 310 309 311 310 310 311 311 312 312 312 312 312 312 311 311 310 309 310 310 309 310 311 309 312 314 309 311 316 316 314 311 313 314 313 316 315 312 311 309 311 311 310 311 314 313 313 312 310 311 312 312 313 311 310 309 309 309 309 310 309
314 314 313 314 313 314 315 315 317 318 316 317 317 314 311 310 310 310 310 311 310 310 310 310 310 308 310 313 310 311 311 310 311 311 311 312 311 311 311 311 310 310 310 309 310 311 309 309 311 312 311 310 311 312 316 320 324 321 312 315 317 313 317 316 312 311 310 311 308 309 313 312 310 312 311 309 309 310 311 312 311 310 309 309 308 308 309 309
315 314 314 314 314 314 315 316 318 318 317 318 317 314 311 310 311 311 312 311 310 310 310 311 311 308 312 314 311 311 311 311 312 311 311 311 311 311 310 310 310 310 310 309 311 311 309 311 311 312 312 311 313 318 318 318 325 323 312 315 318 314 314 313 313 314 311 311 309 309 312 312 311 314 313 309 308 309 310 310 310 309 308 308 308 308 308 308
316 315 314 314 314 314 315 317 319 319 319 319 317 314 312 311 312 311 311 310 311 311 310 311 310 308 313 313 311 312 310 310 312 312 312 311 311 311 310 309 308 308 309 309 310 310 308 310 309 311 315 315 316 318 317 316 319 319 313 314 316 314 312 311 314 315 310 310 311 310 309 310 311 312 312 310 309 309 309 308 308 308 308 308 308 308 308 308
316 315 315 315 315 316 317 319 320 319 319 318 316 314 313 313 312 311 312 311 311 310 309 310 309 311 315 313 312 312 310 309 311 311 312 311 310 310 311 309 306 307 309 310 310 309 310 312 313 316 317 314 313 314 316 317 316 316 316 315 314 313 312 312 313 312 311 310 310 310 308 308 309 308 308 308 309 309 308 308 308 308 308 308 308 308 308 308
316 316 315 315 316 317 318 320 320 319 319 319 317 312 312 315 313 311 311 311 313 313 312 313 311 315 318 313 310 310 310 311 311 311 311 311 310 309 310 308 308 311 312 313 312 310 313 315 315 316 315 313 312 312 313 314 314 314 314 313 313 312 311 312 310 310 311 309 309 310 308 308 308 308 309 308 308 308 308 308 308 308 309 308 308 308 308 308
316 316 316 317 318 319 320 320 321 320 318 318 317 312 314 318 318 318 313 312 315 314 314 316 314 316 316 313 310 310 313 311 311 312 310 310 309 309 309 307 311 313 313 319 316 310 312 315 315 315 315 313 312 311 311 312 312 311 312 312 312 311 310 310 309 310 309 308 309 310 309 309 309 309 309 308 308 308 308 308 309 309 309 309 309 310 310 309
317 317 318 318 319 319 320 321 321 320 318 317 315 312 313 314 316 319 315 315 313 308 313 315 310 313 313 311 310 310 313 312 312 312 310 309 309 311 312 310 312 314 314 320 316 309 310 314 315 315 313 313 313 312 311 311 311 311 312 312 311 311 310 309 310 310 308 308 310 311 310 309 309 309 308 309 309 308 309 309 309 309 309 310 310 310 310 311
321 320 319 320 320 321 320 321 321 320 319 318 313 309 308 307 309 310 309 315 314 305 309 310 307 310 309 309 309 309 312 313 313 313 310 309 309 313 315 312 315 316 314 315 314 312 312 313 313 312 311 313 316 314 311 312 312 312 312 311 312 311 311 310 310 311 309 309 311 311 310 308 309 309 308 309 309 309 309 309 310 310 310 310 310 310 311 311
323 322 322 322 322 322 322 322 321 320 320 317 313 309 307 307 308 307 307 314 317 311 311 311 310 310 309 309 309 309 312 312 313 313 311 309 310 314 314 312 314 316 314 313 314 315 316 316 313 310 309 310 314 313 312 311 311 312 312 311 313 312 312 312 312 314 311 309 310 310 309 309 309 309 309 309 308 309 309 309 310 310 310 310 310 311 310 311
324 323 323 323 323 323 323 323 320 320 320 316 314 312 310 309 307 307 309 315 318 316 312 310 309 311 311 310 308 310 312 311 312 312 310 311 312 312 312 314 314 314 314 313 314 315 315 316 313 311 310 310 312 311 311 312 311 313 313 312 312 312 312 311 312 313 311 312 312 311 311 313 313 313 314 313 311 310 309 309 310 310 309 309 311 311 310 311
325 325 324 323 324 323 323 323 319 320 321 316 314 314 311 309 307 307 312 319 323 320 312 307 308 311 310 307 308 310 311 312 312 310 308 310 313 312 312 312 313 314 313 312 313 312 312 313 312 313 312 311 311 310 312 314 312 312 314 313 312 311 311 311 312 311 312 316 314 311 313 316 316 317 320 321 320 316 311 312 316 314 310 311 313 311 310 312
325 325 325 325 325 323 323 322 319 321 322 316 316 316 312 309 308 308 312 321 328 324 316 311 310 311 308 307 308 309 314 314 308 306 308 308 310 311 313 311 311 314 314 313 312 311 312 312 310 313 315 313 312 312 315 314 310 313 317 317 313 311 312 313 311 311 315 318 313 312 316 316 315 317 320 321 320 319 316 317 317 313 311 314 315 311 311 313
325 325 325 325 324 323 323 322 320 322 323 319 317 316 313 310 307 307 314 325 329 322 316 312 310 309 307 305 306 310 317 315 307 306 308 308 308 308 312 312 310 311 311 312 315 313 313 312 309 311 314 315 313 312 314 312 311 315 316 317 317 314 314 313 310 312 315 315 312 314 315 315 315 315 317 316 316 318 318 317 314 311 313 316 316 311 311 313
325 324 325 325 324 323 323 322 322 322 324 321 318 317 314 310 307 310 323 333 330 318 314 311 308 309 308 305 306 310 311 309 308 308 305 306 308 308 311 314 314 314 310 312 316 313 312 313 313 313 313 315 315 315 316 312 313 316 312 313 316 314 314 313 312 313 314 313 314 314 312 316 318 315 314 313 314 318 318 317 314 312 315 319 320 314 309 313
324 324 324 323 323 323 321 322 322 321 322 320 318 319 316 310 309 316 328 331 326 316 312 310 308 309 310 308 309 311 308 307 309 308 306 307 308 307 310 313 314 314 310 311 314 311 311 312 314 316 316 315 316 318 317 314 314 313 310 313 315 315 314 314 314 316 317 317 316 315 314 318 319 317 317 314 315 320 318 316 314 312 315 320 321 314 309 313
322 322 323 322 322 321 320 320 321 321 321 319 319 318 315 315 317 325 331 328 323 319 312 310 310 309 311 312 312 311 309 309 309 309 310 309 308 308 308 307 311 315 312 310 313 312 309 307 309 314 316 315 316 314 311 312 314 311 312 316 317 317 315 316 318 316 318 319 317 317 316 316 319 319 319 317 317 320 318 316 317 318 321 320 317 314 312 313
320 321 321 321 321 321 320 321 321 321 321 320 320 317 317 322 325 329 331 323 321 323 315 312 313 314 314 313 314 313 310 311 310 310 312 311 311 312 309 308 312 319 318 313 313 313 308 307 310 315 315 313 314 312 307 308 311 312 317 317 315 318 317 318 320 317 318 321 318 317 314 313 319 318 316 318 319 318 317 317 320 322 322 323 322 318 314 310
317 318 319 320 320 321 321 321 321 321 320 319 318 318 321 326 326 328 329 324 326 328 318 314 314 316 316 313 316 315 311 311 311 311 314 314 314 314 314 316 316 318 322 320 318 317 314 313 311 312 312 310 312 313 310 309 309 311 316 315 313 318 318 318 322 319 319 321 315 312 312 313 316 316 316 317 317 317 316 315 319 318 317 325 326 315 310 310
313 314 315 317 319 320 320 321 320 320 320 318 318 321 324 326 326 327 328 326 328 324 316 314 314 314 315 315 321 317 311 313 311 309 312 312 312 315 318 318 314 314 319 318 319 320 321 318 310 308 311 311 312 313 313 314 312 310 313 314 315 317 317 320 324 320 319 322 316 309 312 315 317 319 318 314 314 319 316 313 316 314 313 318 316 310 312 315
310 311 312 314 316 318 319 319 320 320 318 317 320 324 325 326 326 326 328 329 328 323 318 316 316 317 316 317 323 319 316 319 314 310 313 314 315 319 320 316 311 312 314 314 316 318 320 322 317 314 315 313 310 311 317 320 314 309 313 316 316 320 323 323 326 324 321 325 319 310 314 320 320 322 320 316 319 321 316 315 316 315 314 313 310 311 314 312
309 309 310 311 313 316 318 318 319 319 318 318 322 325 326 327 326 325 328 329 328 324 321 318 318 321 321 321 322 318 317 321 318 313 315 318 322 324 325 321 313 312 314 316 319 317 316 322 323 316 312 312 311 313 318 321 315 311 314 315 314 319 322 320 322 324 321 322 319 314 317 319 317 319 318 315 317 317 316 317 317 317 319 315 310 310 308 304
307 307 308 310 311 313 316 318 318 318 318 320 323 325 325 326 328 327 325 324 322 321 322 322 320 322 325 325 324 318 314 316 317 315 316 318 322 323 322 323 317 311 313 318 321 318 318 322 320 313 310 311 312 312 313 318 317 313 313 315 314 316 318 317 320 322 317 318 320 318 320 318 316 317 315 313 314 314 316 317 316 317 316 311 307 304 301 300
304 305 306 308 310 311 314 317 318 316 317 321 324 324 323 324 326 327 324 320 318 319 320 323 323 324 325 324 325 322 315 316 316 316 319 319 318 320 320 321 317 311 312 318 321 320 320 323 319 314 313 312 309 310 312 313 314 315 316 316 314 314 315 317 320 321 319 319 320 319 320 319 319 319 315 315 318 316 317 320 318 314 308 304 302 300 298 297
302 304 307 308 308 309 312 316 317 315 317 320 323 323 323 322 322 324 323 319 317 319 320 322 323 325 325 324 326 324 318 319 319 318 321 320 318 321 321 320 316 311 310 314 319 321 319 319 319 316 314 312 307 310 314 311 309 313 317 315 314 316 316 317 319 320 320 320 321 321 320 319 319 318 316 318 321 318 317 317 312 305 301 299 298 297 296 295
302 307 311 310 309 309 311 316 316 315 317 321 322 322 323 322 322 323 323 319 318 320 321 323 323 323 325 324 325 325 321 320 320 319 321 321 319 319 319 318 315 311 311 312 315 318 316 316 319 317 314 313 310 312 317 315 310 310 313 313 313 314 316 318 320 321 321 321 322 323 322 321 320 318 318 318 318 316 313 309 303 300 298 297 296 295 295 294
303 311 315 311 310 311 312 315 315 316 320 321 320 321 321 320 321 323 322 317 318 321 321 323 324 322 324 323 322 324 323 322 322 320 321 322 322 319 317 316 316 317 316 313 311 316 318 317 317 317 316 315 314 315 318 317 315 313 313 314 313 312 316 318 317 319 319 319 321 322 322 322 321 319 318 314 311 309 307 303 300 297 296 295 294 294 294 293
305 313 314 311 311 312 313 315 316 317 320 320 319 318 319 318 318 320 319 316 318 320 318 320 323 322 320 322 322 321 322 324 324 321 322 324 322 320 318 317 318 321 320 317 315 317 320 319 317 317 317 317 317 319 319 318 318 317 315 314 314 314 317 318 317 318 318 317 318 320 320 322 325 321 312 306 303 301 301 300 297 296 294 294 294 293 293 293
307 312 311 310 313 313 314 318 317 317 318 319 319 318 317 318 318 318 318 317 317 318 318 318 320 320 319 319 320 320 321 323 323 322 322 322 320 318 318 316 316 318 319 320 319 316 315 316 316 316 316 317 318 319 318 317 316 316 315 315 316 314 315 318 319 319 319 318 317 319 319 321 323 315 305 301 300 298 297 296 296 295 294 293 293 293 292 292
307 309 308 309 313 314 315 318 318 317 318 317 317 316 316 318 319 318 317 317 317 317 319 319 317 318 318 319 319 319 320 320 321 321 320 321 320 314 312 313 314 314 316 319 318 314 312 313 315 316 316 318 317 316 315 313 312 313 315 315 315 314 315 317 316 316 318 319 319 320 321 321 320 310 300 298 297 295 295 295 294 294 293 293 293 292 292 292
303 304 305 306 308 311 315 316 316 318 317 317 317 316 316 316 317 317 316 317 318 317 317 318 317 317 317 317 317 317 318 319 318 317 317 320 317 309 306 310 312 310 312 315 317 314 313 315 317 317 317 319 318 316 314 313 313 316 317 316 314 314 315 316 314 314 315 316 317 318 318 319 320 312 303 299 296 294 293 293 293 293 293 293 293 292 292 292
301 301 303 303 302 306 312 312 313 316 316 316 317 316 315 315 316 317 316 316 317 317 317 316 314 313 313 314 314 314 314 316 315 314 315 316 315 308 305 307 309 309 308 308 310 312 313 315 317 317 318 318 316 316 315 313 314 315 316 317 315 313 313 314 314 315 316 315 316 316 316 316 318 316 310 304 299 296 293 292 292 292 292 293 293 293 293 293
302 303 304 305 305 306 308 307 309 313 314 314 315 315 314 314 314 316 316 316 316 315 315 315 313 312 312 313 314 314 313 313 313 313 314 316 316 311 305 305 307 308 307 306 307 311 312 313 314 315 316 316 315 315 314 312 312 314 315 315 313 312 312 312 313 315 316 316 316 316 316 316 316 316 313 305 299 296 294 292 292 291 292 293 293 293 293 293
303 305 305 306 307 307 306 306 307 309 310 310 312 313 313 313 313 313 314 316 315 313 314 314 313 313 314 313 314 314 314 314 313 312 313 314 314 310 304 304 304 304 305 305 306 310 312 311 312 313 313 313 313 311 310 309 309 311 311 311 311 311 311 312 313 313 314 315 315 315 315 314 314 314 310 302 297 295 294 293 293 292 291 292 292 293 293 293
301 303 302 302 304 305 305 305 303 304 306 306 308 310 311 312 312 311 312 312 312 312 313 313 312 312 312 311 312 313 313 312 311 311 311 310 310 309 307 304 302 300 302 304 305 309 311 309 310 311 310 309 308 306 307 307 307 307 308 308 308 309 309 309 309 309 310 310 311 311 311 310 311 310 303 296 294 294 293 293 294 293 292 292 292 292 292 293
297 299 299 298 300 300 300 300 300 301 303 304 305 307 308 309 309 309 310 310 308 310 312 312 310 307 306 306 309 311 311 309 309 309 307 305 306 307 307 306 302 299 299 301 304 307 308 307 307 307 306 305 305 305 306 305 305 304 304 305 306 306 306 305 304 305 305 305 306 306 306 307 306 302 297 294 293 293 292 293 294 293 293 293 293 292 292 293
297 297 297 296 297 296 297 299 299 300 301 302 304 305 305 307 307 307 309 308 307 308 308 308 305 301 301 303 304 306 306 305 307 307 302 302 305 304 302 303 302 299 299 301 303 306 306 305 306 304 304 304 304 304 304 304 303 302 302 302 302 302 302 301 301 302 301 302 303 303 304 305 300 295 294 294 293 292 292 292 292 293 293 294 293 293 292 292
295 296 296 296 297 297 296 297 298 299 300 301 302 303 304 304 303 304 305 304 304 304 302 301 300 298 299 301 301 302 301 299 300 301 299 299 302 301 299 300 299 298 299 301 302 303 304 304 304 303 303 303 303 303 302 301 301 300 300 300 299 299 299 299 299 300 300 301 301 301 303 302 297 293 294 294 292 292 292 292 292 292 293 294 293 293 293 293
293 294 294 295 296 295 295 296 297 298 299 299 300 301 301 300 298 300 304 301 298 298 297 296 297 297 298 299 300 300 298 297 297 298 298 298 298 297 297 297 297 297 298 300 300 301 303 302 301 302 302 302 302 301 299 299 299 298 298 299 298 297 297 298 298 300 302 302 302 302 301 298 295 295 295 293 293 294 293 292 293 292 292 293 293 293 292 292
Wind_Speed
7 7 6 6 6 6 6 6 6 6 6 6 6 6 6 6 7 7 7 7 7 8 8 8 8 9 9 10 9 9 10 10 8 7 7 6 5 6 8 6 4 9 12 9 8 9 7 4 5 6 5 3 3 1 2 2 2 3 3 2 2 3 4 6 8 7 4 3 5 4 2 2 5 4 2 1 1 4 5 6 5 4 8 11 10 9 6 6
7 8 8 8 7 7 7 6 6 6 6 6 6 6 6 6 7 7 7 8 8 8 8 9 9 9 9 10 9 9 12 10 7 8 7 4 3 5 8 8 5 7 12 11 10 11 7 3 5 6 4 2 2 2 1 1 2 3 3 2 3 5 5 6 7 6 4 4 5 6 2 3 5 3 0 2 5 4 6 9 4 5 12 13 14 15 12 9
9 9 9 9 9 9 8 8 8 7 7 7 7 7 7 7 7 7 8 8 8 8 8 9 9 9 9 9 8 10 11 8 4 5 4 3 1 4 6 8 7 8 12 11 9 10 5 5 9 6 4 1 1 2 1 0 1 1 3 2 6 6 5 5 6 7 8 4 3 7 3 2 5 3 1 2 6 5 8 11 7 8 12 11 11 13 14 12
10 10 10 10 10 10 10 10 9 9 8 8 8 8 8 8 8 8 9 9 9 9 9 9 10 9 9 8 7 9 9 5 3 5 7 1 4 3 3 7 9 9 12 9 7 8 4 7 9 5 3 1 3 2 0 2 1 2 4 5 6 4 3 6 8 9 7 3 4 5 4 6 4 3 2 3 3 7 10 11 11 14 14 11 8 9 12 12
11 11 11 11 11 11 11 11 11 10 10 10 9 9 9 10 9 10 10 10 11 11 11 10 10 10 9 7 6 8 7 5 3 7 5 3 5 4 1 7 10 10 13 9 7 8 6 8 6 5 3 1 1 2 2 3 3 2 4 6 6 4 3 7 7 7 5 3 4 4 5 7 2 1 5 7 4 9 11 10 12 15 13 11 9 7 8 9
11 11 11 12 12 12 12 12 12 12 12 11 11 11 11 11 11 11 11 11 11 12 13 12 12 11 9 7 5 5 3 1 5 6 5 7 5 3 1 7 10 12 13 10 10 10 7 6 4 3 2 1 3 3 4 2 2 2 5 5 6 6 5 5 4 5 5 4 4 4 5 4 2 5 5 10 11 14 15 14 13 13 11 10 8 5 7 9
10 11 11 12 12 12 12 12 12 12 12 12 12 12 12 12 12 12 12 12 12 12 13 13 13 12 9 6 4 3 3 5 11 8 9 9 6 3 4 7 11 14 14 13 12 9 5 6 3 4 4 1 4 5 4 1 1 3 4 5 6 6 8 7 3 4 5 6 7 3 5 8 10 7 2 9 14 17 20 17 13 12 10 8 7 7 9 10
9 10 11 11 11 12 11 11 11 11 11 11 12 12 12 13 13 14 13 14 13 13 14 13 13 12 10 4 1 3 1 10 17 14 12 10 7 4 6 9 12 15 15 15 14 10 6 7 6 4 3 3 4 4 4 2 0 5 7 5 3 3 7 7 4 5 6 8 6 1 7 17 15 5 5 11 14 17 21 17 10 9 9 7 10 12 11 10
9 10 11 11 11 11 10 11 11 10 11 11 12 12 13 14 14 14 14 15 15 14 14 14 13 11 9 2 3 2 5 12 14 11 11 9 7 7 9 9 13 16 14 13 13 12 7 6 7 5 4 4 5 4 4 3 4 7 8 5 3 5 7 5 6 7 7 6 4 3 12 18 10 3 10 15 16 19 18 15 9 7 10 10 11 13 11 11
9 10 11 12 11 10 10 10 11 11 11 11 12 13 14 14 14 15 15 16 16 15 14 14 13 10 7 1 2 4 7 9 8 7 8 9 9 10 11 10 13 17 14 11 12 13 8 7 7 5 4 3 5 4 3 5 4 4 4 5 6 7 8 4 6 8 5 5 6 8 14 16 5 3 9 12 9 12 11 11 9 5 10 12 10 11 10 10
9 10 11 11 10 10 10 10 11 11 12 12 13 14 14 15 15 16 17 17 17 16 15 14 11 8 4 2 3 7 6 5 7 8 9 10 11 11 12 11 13 17 15 10 13 17 10 9 10 7 2 3 4 2 3 5 2 2 1 7 8 7 10 5 6 8 4 4 8 11 10 12 4 2 15 15 4 5 7 10 11 7 10 11 10 10 7 8
8 9 10 10 9 10 10 11 12 12 13 13 13 14 14 15 16 17 17 17 17 16 15 14 10 6 2 2 7 12 12 9 9 9 10 12 11 10 11 11 12 15 15 10 13 19 13 9 13 6 3 4 3 1 4 2 3 1 3 5 9 7 11 9 6 6 6 4 6 9 4 8 5 9 20 13 3 5 7 10 13 11 10 9 9 8 7 10
8 9 9 9 9 9 10 11 12 12 13 13 13 14 14 16 17 18 18 17 17 16 14 12 9 4 1 3 7 11 15 15 13 13 14 13 11 10 11 11 11 13 15 11 9 14 15 11 11 6 2 5 1 2 1 3 3 2 2 1 6 6 9 7 2 1 4 5 7 7 3 6 9 16 19 7 5 5 5 10 13 11 9 8 8 7 8 10
8 8 7 8 9 9 10 11 12 13 13 13 14 14 15 16 17 17 17 17 16 14 12 8 5 3 3 6 8 7 11 13 15 17 16 15 12 8 8 9 11 12 12 11 5 7 13 12 8 4 0 2 2 1 2 5 2 3 1 1 2 2 7 6 2 4 2 4 7 5 5 8 10 16 16 4 3 5 6 11 12 10 9 7 7 8 9 10
7 7 7 8 9 9 11 12 13 14 13 14 15 15 16 16 15 15 14 13 11 9 7 4 5 5 2 8 10 7 8 9 12 15 16 15 12 7 6 9 10 10 9 8 4 4 11 11 7 3 1 1 1 1 3 4 3 1 2 3 1 3 6 10 5 6 7 4 4 5 5 8 10 14 15 4 3 3 6 11 12 11 11 9 9 8 10 12
7 8 8 8 9 10 12 13 15 15 14 15 16 16 15 13 11 12 11 8 4 3 5 4 7 6 1 5 5 5 6 7 9 11 12 14 13 7 8 10 8 7 6 5 5 7 10 8 3 2 1 1 2 2 2 4 4 2 2 5 5 5 4 7 9 6 8 3 1 6 6 6 8 10 12 6 2 4 6 12 15 15 14 12 11 10 10 12
7 8 8 8 9 11 12 14 15 16 16 16 17 16 11 8 8 8 6 3 5 7 6 4 7 4 2 5 4 5 5 6 7 7 8 11 11 10 11 8 5 8 8 6 7 7 4 3 1 1 2 1 3 4 2 2 5 3 2 4 5 6 4 4 8 6 2 5 4 6 7 10 12 10 11 11 11 9 10 15 17 16 15 14 12 11 11 11
7 8 8 8 10 11 13 14 16 17 17 17 18 14 6 5 6 6 7 9 10 8 6 3 4 2 4 5 4 4 1 2 4 3 5 7 10 12 10 6 6 10 8 4 3 3 2 2 2 1 1 1 2 4 3 6 8 6 5 4 4 4 5 5 7 5 3 3 4 4 9 14 15 13 13 14 12 13 16 17 15 16 16 15 13 12 12 11
7 7 8 9 10 11 12 14 16 18 17 17 16 9 3 5 4 6 6 6 5 2 0 1 3 2 4 5 5 4 1 2 2 2 6 9 11 11 8 7 7 8 5 1 1 2 1 2 4 2 3 6 7 8 11 13 9 6 5 4 6 5 6 7 9 7 4 6 7 9 15 15 12 13 14 14 11 11 18 18 16 15 15 14 12 12 12 12
6 6 7 8 9 10 12 14 16 17 17 18 15 6 2 5 3 2 3 1 3 4 2 5 7 4 6 6 2 2 2 2 2 3 8 11 13 11 5 4 5 4 3 5 3 2 3 3 3 5 10 12 11 10 13 10 4 1 3 4 7 7 8 8 10 8 1 3 9 11 18 17 12 13 13 15 12 11 17 19 18 17 14 13 13 15 14 12
6 6 7 8 8 10 11 13 15 16 15 16 14 6 2 2 2 3 5 4 9 10 8 10 11 9 12 11 5 4 1 1 1 4 9 12 13 10 1 2 5 1 2 4 3 1 2 5 7 12 13 8 5 6 8 7 5 5 5 6 7 6 10 10 10 10 1 2 6 7 16 18 13 13 13 15 15 15 18 16 18 20 16 14 16 17 13 9
7 7 7 8 9 10 10 12 14 13 12 14 13 6 2 1 1 3 2 4 10 10 11 13 10 9 16 19 13 4 1 3 4 2 9 10 7 5 2 4 5 4 1 3 2 1 1 5 11 15 8 1 3 3 4 5 7 7 5 5 6 4 8 9 7 8 2 1 6 7 14 15 13 16 17 18 17 16 14 12 16 19 17 17 16 12 9 8
9 8 9 8 9 11 11 11 12 10 11 11 9 5 1 1 2 2 1 2 7 6 7 9 6 7 11 15 10 6 5 7 5 4 10 11 3 3 4 5 5 3 3 5 6 5 4 6 13 14 5 2 4 4 6 1 4 6 5 4 6 3 5 7 4 5 3 3 6 9 14 13 12 15 15 15 14 12 13 13 15 17 18 18 13 8 7 8
9 10 10 9 10 11 11 12 8 7 10 7 6 5 3 2 2 1 1 2 4 5 6 6 4 4 6 6 4 8 5 5 2 4 10 12 4 2 4 5 5 3 5 9 10 9 7 5 6 6 5 8 8 1 3 3 6 7 6 5 8 9 9 9 5 6 6 5 3 6 12 10 5 6 7 6 5 8 11 10 13 18 17 10 8 7 3 3
10 11 10 8 10 9 10 11 4 6 10 3 3 6 5 2 1 2 2 2 3 6 5 2 2 2 4 2 5 7 3 2 3 3 9 11 6 3 2 2 4 5 8 9 9 9 8 4 3 4 5 8 7 5 5 7 8 6 5 10 14 13 11 11 8 7 5 4 3 6 7 7 1 1 5 4 3 6 5 6 15 18 7 4 6 5 4 4
10 10 9 9 9 7 7 5 1 6 8 1 3 8 6 3 1 1 2 2 4 5 2 1 1 1 3 2 2 4 3 2 3 1 4 5 4 3 2 1 1 4 7 5 4 4 4 4 3 5 5 6 6 6 7 9 6 6 5 11 13 10 9 10 7 4 1 4 2 4 2 8 3 3 7 5 5 9 7 9 18 11 5 4 6 2 5 3
12 12 10 10 8 6 3 1 2 5 4 1 4 7 6 4 2 1 1 3 4 2 2 1 1 2 1 0 1 3 2 4 3 3 2 1 1 1 1 3 1 1 3 2 2 3 4 2 1 4 5 6 5 6 7 10 5 6 5 6 7 8 7 6 3 3 4 3 3 1 4 6 8 4 5 3 3 9 11 13 15 6 4 6 6 2 5 3
14 14 12 10 8 7 5 4 3 2 2 3 4 5 7 5 2 2 2 2 4 1 2 2 0 2 1 2 4 3 1 2 3 2 2 2 1 2 0 5 5 4 3 4 4 3 3 4 5 6 5 4 6 6 7 12 6 6 3 5 6 5 5 4 4 4 2 3 4 3 5 3 10 4 1 2 2 8 13 14 13 6 4 7 7 2 7 3
14 14 13 11 8 7 7 7 5 4 4 4 2 4 6 4 2 4 3 3 2 2 1 0 1 2 3 3 4 3 2 2 2 3 4 2 0 3 1 5 6 4 3 4 6 4 1 4 7 8 5 6 7 4 8 12 6 4 5 6 5 4 3 4 3 3 2 3 4 5 5 3 10 4 3 2 1 7 10 10 9 6 5 8 7 3 7 1
10 11 11 10 7 7 7 8 10 7 6 4 2 4 4 2 2 2 3 4 1 1 0 1 0 2 3 4 4 3 1 2 1 2 3 1 2 5 1 3 5 3 2 2 5 5 1 1 2 5 4 6 5 2 3 7 5 4 6 5 5 4 4 3 1 3 1 5 5 10 11 6 6 4 4 3 3 5 6 6 6 6 6 7 7 4 4 3
6 6 7 8 7 7 5 5 7 7 7 5 1 2 2 1 2 3 6 2 1 1 1 2 2 3 4 3 2 2 1 1 2 2 2 2 3 5 2 0 3 3 3 4 5 4 1 0 2 3 1 3 5 4 3 1 3 4 4 3 3 3 4 4 4 4 1 6 5 9 10 9 8 5 1 4 6 5 5 5 6 6 7 7 4 4 3 5
4 4 4 5 6 8 6 3 2 4 5 4 3 2 2 1 2 5 3 2 1 1 1 0 1 2 3 2 1 1 1 0 1 2 2 2 1 1 2 3 2 2 4 2 3 4 2 4 4 3 1 4 5 2 3 3 2 3 3 2 1 3 3 3 3 0 3 6 4 4 4 5 9 5 4 9 10 8 7 6 7 6 7 7 4 5 4 5
4 4 3 4 6 8 8 7 4 4 6 7 4 3 3 2 4 2 0 1 2 1 2 1 0 2 2 1 2 2 1 1 2 2 2 2 1 3 4 4 5 2 3 2 2 4 4 4 1 1 3 4 7 4 2 2 3 5 4 4 3 1 1 3 3 2 4 5 4 1 3 4 6 4 8 14 12 7 4 5 7 7 7 8 5 5 4 5
6 5 5 4 5 7 8 9 7 6 9 9 4 2 2 5 3 2 2 4 2 2 1 2 2 1 2 2 3 3 2 2 3 4 1 2 1 2 4 4 4 3 1 1 2 1 4 7 3 5 3 4 9 8 5 4 5 5 4 4 3 3 3 4 4 4 6 4 3 1 3 3 2 2 7 9 7 4 1 3 5 5 7 6 4 5 5 7
8 7 7 7 7 8 9 9 8 9 12 8 3 2 5 6 2 1 3 4 2 3 3 1 2 3 2 2 3 2 3 3 2 4 2 2 3 3 2 4 6 5 3 1 1 2 3 8 6 3 1 7 8 5 4 6 2 2 3 3 2 4 4 3 3 5 3 2 3 2 3 5 4 6 9 7 5 6 5 5 5 6 6 4 7 8 8 10
9 8 8 8 10 10 11 11 11 14 13 6 1 6 7 4 3 3 3 2 2 2 2 4 0 1 4 2 2 2 0 2 1 1 1 2 3 5 4 4 6 8 7 4 2 2 3 7 4 1 1 6 6 2 3 3 2 2 3 3 3 3 5 2 4 2 1 3 6 4 6 7 4 7 8 3 0 4 6 5 4 7 7 8 9 9 11 11
8 7 6 8 11 12 13 13 16 18 11 3 4 7 4 3 4 4 3 2 1 3 1 4 2 3 3 2 2 2 1 1 1 1 2 2 3 4 5 4 5 11 11 5 2 3 4 8 6 4 5 5 2 2 1 1 4 5 3 4 2 1 3 2 1 1 1 6 6 6 12 11 6 6 3 4 4 5 6 6 5 8 10 10 9 10 11 11
5 4 5 8 11 13 14 16 20 16 6 2 7 9 4 3 4 4 4 3 0 1 2 4 4 3 3 4 4 2 3 2 1 2 2 3 4 4 5 4 4 7 7 3 2 3 4 7 7 4 6 3 2 2 2 3 1 4 3 2 2 1 2 1 1 1 4 7 4 5 11 10 7 7 3 4 6 6 6 6 9 12 12 11 10 11 11 11
2 1 2 4 6 10 16 21 20 10 2 3 8 8 4 4 4 4 4 3 1 2 4 5 4 3 3 4 3 2 3 4 3 2 3 3 5 4 4 3 2 1 2 4 4 2 2 5 6 0 2 1 2 1 2 2 1 1 1 2 2 2 3 1 2 1 2 6 5 5 7 7 7 4 1 2 5 7 6 7 11 11 11 9 9 9 10 10
1 1 1 3 1 10 19 20 12 5 4 5 7 6 2 2 3 2 2 3 2 2 3 5 5 4 4 4 4 3 3 4 4 4 4 3 4 4 3 4 4 2 1 2 4 2 2 3 6 1 1 2 1 3 5 6 4 2 1 2 2 2 1 1 2 2 3 7 6 6 7 6 6 3 5 6 7 9 8 9 10 9 9 9 8 8 7 7
1 1 1 4 3 15 20 13 5 3 5 5 6 6 3 2 3 3 1 2 2 2 1 3 5 4 4 3 4 3 2 3 5 4 4 3 4 5 2 1 3 4 2 2 2 3 1 3 4 3 4 4 5 6 7 8 6 5 4 5 5 5 3 5 6 4 4 5 5 7 9 6 5 5 8 10 10 10 9 9 9 8 9 8 8 8 7 6
1 2 1 3 9 20 14 5 3 3 3 4 3 4 3 2 2 3 2 1 2 2 1 1 4 4 4 4 5 4 4 4 5 4 4 5 7 7 2 6 2 1 1 1 2 2 1 1 1 5 6 8 9 5 3 5 5 2 3 5 5 5 5 7 9 6 4 5 5 7 9 5 2 5 11 10 8 8 9 9 8 7 7 6 6 6 6 6
1 1 3 1 14 20 9 3 4 3 3 3 2 3 3 2 2 3 2 1 2 2 1 1 3 5 5 6 6 5 5 4 6 8 6 4 5 4 5 6 3 2 3 1 2 3 2 2 1 4 4 7 8 2 3 1 2 1 3 5 5 4 4 6 7 4 4 5 5 6 6 3 2 6 12 10 8 8 8 7 7 6 6 6 6 5 6 5
1 2 3 2 6 9 5 4 4 4 5 4 5 6 5 3 4 5 4 2 2 2 1 2 3 4 3 2 2 3 4 4 5 8 5 2 3 2 7 7 3 2 2 1 1 0 1 1 1 2 3 4 5 3 3 4 1 1 3 2 2 3 5 6 4 1 2 6 9 9 6 3 2 2 7 9 9 9 7 6 6 5 4 6 6 6 7 7
2 1 3 5 4 1 2 2 1 3 6 6 8 9 8 5 5 6 6 5 4 4 2 3 2 1 1 1 1 2 3 3 3 4 1 1 3 2 5 7 5 3 1 1 0 2 1 2 2 3 6 5 6 6 2 1 1 2 3 4 4 3 4 5 4 4 4 6 9 8 6 5 5 7 8 6 6 7 7 5 5 4 3 4 5 6 7 8
1 0 1 3 3 1 1 0 1 2 4 4 6 7 9 9 5 4 5 5 5 5 4 4 2 1 2 3 4 6 6 5 4 2 2 3 3 1 2 3 5 3 2 3 4 2 1 2 4 6 8 7 8 7 2 2 2 4 4 5 6 5 4 4 4 5 5 6 7 7 8 9 9 9 8 7 7 6 5 5 4 4 3 3 3 4 5 6
1 1 1 0 2 1 2 1 1 2 2 1 2 3 5 7 4 2 2 2 2 1 2 3 2 3 5 4 4 5 6 5 4 4 5 5 3 2 1 2 4 4 1 1 3 2 2 2 4 7 9 7 6 7 5 4 3 4 4 6 7 7 6 7 9 8 7 7 7 6 7 10 9 7 4 4 5 5 5 5 3 2 2 1 2 2 3 3
1 0 1 0 1 1 2 1 2 2 3 2 1 2 4 3 2 2 1 1 2 2 1 2 1 1 2 1 1 1 3 5 4 2 2 3 3 3 2 2 3 5 4 2 2 2 2 3 4 5 5 3 4 7 6 6 6 4 5 7 8 9 10 11 12 10 8 8 9 10 13 17 13 5 2 1 2 3 4 5 4 2 2 3 3 3 3 4
1 0 2 2 1 0 1 1 3 3 3 2 1 3 5 6 8 4 1 2 3 2 2 4 2 3 4 3 1 3 4 6 6 2 1 1 2 1 2 2 1 4 6 4 4 0 2 2 2 1 3 4 5 7 7 7 9 9 8 8 9 12 15 15 14 13 13 15 16 16 20 20 10 1 4 2 0 2 3 4 3 4 4 4 4 4 4 4
1 0 1 2 1 0 1 1 1 1 3 2 3 4 4 6 9 4 2 1 3 2 2 2 2 4 3 2 2 2 3 3 4 3 1 1 1 1 1 1 1 4 5 3 3 3 1 3 2 1 2 6 6 7 8 8 9 11 12 12 14 17 17 16 15 15 15 16 16 17 19 13 1 3 1 1 1 2 3 3 4 4 5 5 5 6 6 6
2 2 2 3 1 1 1 1 1 1 2 3 3 4 3 4 5 1 1 0 1 1 2 3 3 4 1 1 1 1 1 3 1 3 1 1 1 1 0 1 1 4 4 1 2 3 2 2 3 3 4 6 7 9 10 9 10 12 14 17 20 19 16 14 14 13 12 12 12 12 11 4 2 2 1 2 2 3 4 5 5 5 5 5 6 7 7 7
3 2 3 4 1 1 2 1 0 2 3 2 1 1 1 0 2 1 0 2 4 5 6 4 2 3 2 3 2 2 4 3 3 4 3 4 5 4 4 5 4 3 2 1 2 2 2 2 2 3 5 7 9 9 6 6 9 12 12 14 16 15 14 13 11 10 8 6 7 8 4 1 2 3 1 3 3 3 4 5 5 6 6 5 6 8 8 7
Wind_Direction
13 15 13 14 12 12 13 10 10 7 10 7 3 1 358 359 353 353 350 349 351 347 350 347 350 355 355 358 352 340 330 315 298 272 245 258 268 252 247 251 230 205 204 195 180 163 133 123 147 138 131 95 16 349 13 8 84 67 88 122 219 201 200 188 190 198 190 252 267 277 158 173 292 290 277 328 283 274 284 269 249 265 255 240 249 260 263 250
2 2 1 1 358 359 359 357 358 354 355 355 354 349 347 348 342 342 340 340 341 340 343 341 344 348 353 356 350 344 332 319 298 268 245 220 248 266 255 243 225 197 194 193 194 175 144 167 163 118 89 69 355 358 9 340 93 92 118 157 228 205 212 198 187 192 204 230 259 274 231 208 257 260 27 266 278 312 297 275 243 253 262 257 254 251 250 229
355 353 351 351 349 348 346 346 346 344 344 342 341 338 336 336 333 333 330 331 331 332 333 333 335 339 349 351 350 347 331 324 306 256 199 135 326 292 261 228 210 191 193 197 202 192 174 175 158 114 63 72 341 16 36 351 163 158 133 192 241 217 227 235 209 207 221 231 276 281 276 243 238 213 159 231 281 299 266 266 260 254 257 256 249 236 235 221
351 348 346 343 342 340 339 339 336 335 335 332 331 329 328 327 328 326 325 325 324 324 323 325 328 331 343 348 351 342 334 339 285 193 160 101 354 343 267 210 193 186 193 194 188 195 180 144 136 88 78 109 327 6 173 230 201 178 153 203 233 196 223 242 221 220 231 226 242 275 322 296 256 178 190 176 288 285 256 252 244 251 257 255 251 226 218 211
348 345 343 339 338 335 335 333 330 330 328 328 327 324 325 323 323 321 320 319 319 320 317 318 321 325 335 341 347 341 356 11 265 187 169 330 345 351 292 189 184 183 189 184 162 162 149 133 109 57 80 151 323 35 240 227 132 174 212 226 222 159 229 245 217 222 214 179 228 272 301 283 275 176 197 171 218 257 258 254 233 241 251 251 254 223 202 205
346 343 341 337 336 332 333 332 329 329 325 327 326 325 324 320 319 317 315 314 315 315 311 311 314 318 325 328 331 339 31 341 254 214 256 309 322 322 166 179 180 181 185 174 149 141 128 107 92 96 88 39 194 194 245 240 121 231 250 254 240 193 226 247 196 204 176 162 217 227 279 288 292 272 209 176 217 244 255 258 249 249 247 248 253 206 194 209
345 343 340 338 335 331 335 335 332 330 328 330 329 327 323 319 318 314 312 309 308 310 307 306 309 310 314 321 309 339 93 239 263 262 280 290 287 268 175 180 180 184 184 168 149 140 118 107 143 154 107 7 212 210 232 227 94 242 256 258 249 212 224 240 209 197 188 220 235 230 318 287 263 272 201 187 221 246 256 257 256 263 259 252 250 224 219 217
342 341 340 338 335 333 338 337 336 334 332 333 330 327 322 319 316 312 311 307 306 308 305 304 309 312 314 318 279 343 93 250 270 275 277 274 262 227 185 181 182 187 186 181 169 155 139 143 174 154 135 233 196 184 191 153 126 218 233 243 243 226 236 251 252 238 239 246 242 263 284 269 263 273 271 239 229 242 255 261 261 269 271 255 250 247 240 231
342 341 339 336 335 334 336 336 337 336 335 334 329 326 320 317 313 311 308 305 305 305 306 307 311 317 312 328 101 324 262 259 274 276 268 258 246 213 194 187 187 190 186 192 184 165 162 174 193 186 189 201 173 183 175 179 239 216 219 250 265 271 270 272 265 243 242 247 181 193 260 266 277 308 268 249 231 241 253 269 272 266 268 254 249 252 246 241
340 339 335 333 334 333 334 337 337 337 336 334 330 325 320 316 312 308 305 304 303 303 305 304 310 317 302 338 99 270 263 263 266 257 249 240 235 212 201 198 195 196 185 185 184 173 180 193 183 165 162 144 170 187 154 177 212 193 203 272 263 274 285 252 256 251 240 257 182 193 255 266 296 38 266 248 217 238 252 271 271 245 256 253 248 252 247 244
335 334 332 330 334 334 338 341 339 339 337 335 330 324 319 315 310 305 303 301 300 301 302 300 308 312 283 157 187 252 262 260 252 244 239 237 237 220 212 212 205 200 186 176 193 194 197 184 146 113 156 176 168 170 216 205 151 107 124 298 280 297 295 235 239 259 224 258 197 189 252 278 316 132 250 255 192 211 243 270 272 248 252 258 255 254 249 244
328 326 327 330 334 337 343 344 342 342 338 335 330 325 320 313 307 301 298 296 295 295 293 294 301 301 282 188 225 249 258 256 253 250 245 240 234 221 217 219 215 210 198 188 206 207 204 176 143 135 224 165 135 192 243 222 81 42 68 311 293 335 305 253 231 244 183 214 184 161 255 285 258 229 250 259 159 194 244 265 270 261 256 261 262 258 249 247
321 321 323 329 338 345 348 347 346 344 340 338 332 327 320 312 305 299 296 292 289 287 283 284 285 270 256 267 247 255 261 256 254 254 251 243 232 222 217 214 212 215 215 211 216 210 205 192 162 169 198 140 195 218 136 52 62 288 64 318 296 340 304 263 185 123 161 195 169 150 255 263 243 248 258 262 151 195 238 254 263 266 263 261 263 263 257 254
316 321 328 338 348 351 351 351 350 346 344 341 335 329 321 313 306 301 299 293 286 281 274 268 254 187 155 260 269 282 271 260 253 249 247 240 224 214 211 206 202 205 215 219 228 212 201 193 157 137 167 148 246 268 27 10 21 290 299 218 306 298 283 291 108 124 203 215 157 159 254 251 254 263 266 282 136 202 239 259 263 266 267 263 262 264 267 263
322 334 343 348 351 353 353 353 350 349 348 343 337 332 322 315 311 311 308 298 289 270 246 210 176 145 91 275 273 287 273 260 252 247 247 236 214 196 192 188 191 194 201 207 207 189 179 166 137 134 261 275 55 3 326 342 10 11 280 271 271 210 270 306 294 182 217 264 131 167 242 257 259 265 270 308 79 189 241 266 269 269 272 269 265 263 266 270
332 340 345 348 350 353 354 353 353 352 350 346 340 333 324 322 324 324 319 309 291 208 172 163 167 150 3 280 275 283 260 246 248 248 241 226 215 198 167 162 167 166 165 165 143 141 144 131 112 144 157 276 135 122 21 357 329 325 227 245 250 240 272 315 298 237 201 199 173 214 236 268 262 263 277 302 291 231 249 270 274 276 276 271 269 265 263 270
334 337 342 349 351 354 355 355 356 354 353 350 343 336 331 339 347 344 353 59 110 125 119 139 158 146 271 260 273 279 256 238 242 244 227 214 209 189 158 136 125 128 116 106 122 120 102 92 43 15 61 22 125 114 46 313 273 271 224 239 244 249 263 298 296 300 157 164 214 240 242 253 260 274 293 296 290 284 273 272 275 277 277 273 270 267 264 265
328 333 343 349 351 355 356 357 358 355 353 352 345 338 342 359 13 49 77 101 106 103 86 87 129 120 269 252 263 271 292 228 224 208 200 188 183 181 162 131 124 119 98 70 111 116 10 32 78 16 343 314 134 128 191 232 235 236 231 248 266 254 252 257 265 300 341 240 226 264 257 253 264 277 282 282 285 287 279 275 275 274 273 274 274 272 267 263
323 333 341 347 351 354 356 357 359 356 353 356 351 341 11 10 32 86 82 94 102 102 22 211 161 143 258 259 275 280 24 130 170 165 163 155 161 164 139 116 114 111 110 94 244 180 127 58 77 127 228 227 207 182 206 228 233 230 226 241 268 272 251 241 251 266 305 292 268 265 266 265 269 272 275 276 271 273 279 281 278 273 272 274 275 272 268 264
313 325 329 338 346 351 356 357 359 357 355 1 358 352 45 14 13 23 347 326 210 232 251 223 207 227 274 278 277 234 217 177 180 164 157 155 152 139 101 83 83 77 138 157 195 196 132 151 164 200 220 224 221 208 219 246 300 304 243 256 260 269 268 259 269 269 158 282 267 257 272 277 271 268 273 276 273 264 268 272 275 276 277 278 273 270 270 266
309 314 324 334 339 346 352 352 357 360 0 7 11 23 103 57 23 321 312 290 256 243 243 236 221 238 259 261 237 172 161 261 223 150 158 160 150 143 136 111 120 176 214 150 156 51 111 178 208 222 222 220 229 219 225 257 296 272 253 272 268 257 269 268 270 277 241 245 262 253 273 278 275 271 265 266 267 258 257 265 274 277 279 278 270 269 274 278
324 321 327 331 336 343 344 346 353 358 4 18 33 59 115 136 234 269 283 299 278 248 240 246 240 248 252 255 251 198 86 274 264 189 163 155 150 178 194 122 154 198 171 127 129 71 189 212 229 233 224 85 27 85 146 219 242 251 250 276 276 258 279 274 259 283 321 230 276 283 278 277 271 263 254 251 252 256 260 255 262 271 272 269 268 276 295 309
334 333 334 338 347 348 346 344 346 356 10 26 48 68 46 336 242 254 120 272 288 264 235 241 238 241 248 260 251 192 213 243 256 250 176 153 145 193 156 143 172 161 141 185 199 197 214 235 235 236 219 218 282 73 100 237 248 229 223 261 274 257 276 272 263 319 336 247 276 296 288 280 265 257 252 251 251 257 262 251 253 261 258 261 275 297 307 316
310 312 316 326 337 338 343 343 339 2 11 26 51 41 17 345 226 186 64 248 282 280 244 226 215 219 236 267 212 177 215 228 228 248 180 156 137 163 164 162 154 150 195 206 212 219 231 237 221 218 192 204 240 212 133 260 264 225 203 225 259 255 250 254 279 338 326 284 299 318 299 286 268 261 259 270 276 255 256 261 260 257 256 269 294 295 305 342
287 290 292 297 307 310 325 336 348 13 2 20 43 9 12 10 215 152 32 323 291 290 277 222 179 210 207 159 155 174 183 217 238 234 180 167 153 143 183 171 143 195 211 206 221 242 250 232 143 139 178 188 209 229 205 218 252 263 209 213 237 253 256 261 290 346 346 309 349 9 322 296 20 49 265 292 309 263 259 263 252 253 277 349 293 299 51 59
271 274 275 274 285 295 312 326 353 357 353 28 17 356 2 12 297 155 54 17 293 281 298 231 183 173 180 118 151 166 129 271 291 32 162 180 167 128 148 199 103 209 202 187 216 245 248 236 177 159 163 157 182 237 222 197 237 287 234 211 225 242 254 264 288 339 303 259 306 52 353 284 287 176 242 261 270 270 266 249 251 262 2 347 284 355 66 71
262 262 261 261 266 272 280 263 281 328 342 325 353 352 351 360 338 305 23 3 301 244 122 297 338 91 178 329 8 133 158 282 344 49 76 58 294 81 141 214 192 228 184 142 273 245 198 209 103 134 132 138 179 239 219 174 188 267 235 190 196 219 236 236 233 228 236 283 316 120 144 278 284 234 246 247 213 265 267 257 263 288 357 298 286 73 103 127
266 262 259 257 255 245 236 240 265 278 262 290 337 342 348 358 345 9 46 311 292 119 91 301 76 68 345 11 43 89 221 314 44 332 336 42 301 54 329 228 188 208 187 149 242 264 153 174 172 147 126 161 201 223 183 158 183 249 199 137 153 187 201 169 170 206 255 345 308 235 140 257 278 262 346 16 181 249 261 259 268 298 321 283 278 103 104 135
263 261 261 257 246 233 230 236 237 231 250 270 316 330 344 348 349 56 94 243 294 73 64 358 119 354 354 25 20 39 360 2 77 291 336 49 316 66 176 219 161 193 231 174 232 265 150 203 185 152 149 205 214 211 171 164 194 222 130 98 81 84 87 103 142 141 65 311 253 206 162 234 281 274 98 48 254 246 256 260 268 290 296 280 286 56 89 247
263 262 262 251 230 216 215 231 238 237 249 250 287 328 332 331 32 73 216 234 23 24 217 88 344 325 30 55 349 344 356 324 18 352 6 52 344 28 116 192 110 133 269 313 267 260 291 333 168 163 186 200 168 114 169 166 167 141 110 67 43 41 46 57 53 91 59 284 233 190 183 190 281 296 140 175 233 239 257 278 286 305 316 299 303 34 69 283
267 267 263 247 231 216 197 227 238 225 232 233 194 3 337 6 66 197 232 221 60 299 51 47 334 13 54 81 320 330 60 316 2 43 28 33 19 24 25 235 77 62 354 326 292 286 331 51 240 246 214 132 111 73 11 66 121 112 90 58 21 347 15 26 356 49 179 266 241 193 186 186 231 268 258 245 257 245 237 257 277 316 334 310 303 53 42 283
274 275 269 246 233 222 210 219 197 181 206 192 128 79 71 22 245 217 245 360 341 287 81 325 286 84 87 109 230 298 59 289 16 92 108 75 95 174 208 199 166 351 328 272 283 319 276 220 248 295 250 149 126 86 6 12 72 99 102 107 341 317 348 351 317 81 218 263 270 186 172 217 240 251 269 267 271 253 223 227 252 292 312 295 311 40 11 293
281 283 274 246 229 225 230 231 207 174 173 154 122 61 88 202 243 191 128 285 252 333 87 124 20 119 135 321 251 213 156 190 160 131 144 116 88 259 248 213 166 195 273 236 305 322 294 279 259 256 265 183 153 168 238 254 162 152 157 158 163 208 274 272 260 266 268 280 301 184 167 258 280 264 233 244 261 261 220 232 253 270 280 281 314 16 343 318
288 287 279 264 233 226 233 230 222 191 161 142 111 66 151 221 240 98 176 236 256 333 1 116 32 33 146 252 248 188 212 244 146 136 145 98 59 279 269 247 184 160 215 271 318 271 280 297 219 186 243 174 176 199 188 137 154 177 159 140 160 179 207 240 232 256 277 289 313 301 195 225 263 263 232 231 267 313 320 274 281 279 269 279 344 21 6 3
289 283 281 272 243 227 220 217 213 180 157 134 96 192 214 232 242 127 208 230 267 307 309 347 23 347 280 248 274 237 228 255 122 120 156 159 186 206 217 235 195 161 135 202 269 179 232 269 246 230 240 163 185 218 136 107 140 206 121 117 214 198 191 244 244 229 253 305 295 252 226 229 217 262 268 254 286 326 318 301 312 296 290 5 32 31 26 23
288 285 280 260 245 234 215 206 194 174 158 128 164 224 233 233 192 185 199 188 168 164 326 327 39 262 279 260 308 328 236 227 173 118 196 192 214 214 209 228 192 174 172 177 218 210 232 263 257 7 294 194 193 201 136 138 187 169 124 183 226 167 153 231 279 253 161 264 263 245 254 276 287 283 278 238 231 3 348 332 324 307 332 35 39 29 29 28
296 288 273 250 247 235 215 200 183 172 159 131 216 228 236 213 194 192 180 147 137 131 82 301 239 204 259 265 274 304 60 239 204 168 224 222 238 204 198 249 202 186 197 188 203 225 233 271 260 182 227 247 201 135 67 46 147 138 176 221 217 104 134 154 271 320 253 249 257 256 263 278 292 282 321 44 31 15 358 345 358 356 13 38 38 32 31 28
310 294 268 257 251 234 213 194 176 165 147 156 228 237 221 204 209 187 166 149 167 179 190 244 242 222 237 242 253 215 176 211 172 167 209 221 239 181 167 245 209 189 215 166 135 231 209 263 276 199 211 255 60 87 344 337 132 140 195 229 100 181 217 139 175 222 251 252 250 249 262 272 261 255 303 348 325 335 342 2 31 30 31 33 27 26 23 22
298 324 281 270 248 221 200 184 169 157 148 193 227 238 214 210 217 191 188 183 178 196 211 232 234 242 237 210 222 235 203 199 172 196 220 218 238 193 159 228 204 165 265 150 171 250 176 250 276 44 188 241 67 121 189 228 254 75 340 329 72 189 210 163 180 174 240 257 260 243 251 262 257 253 47 330 319 349 8 44 52 41 37 35 27 22 15 17
184 95 285 333 311 185 178 172 165 167 199 208 229 232 206 229 242 253 230 204 209 216 223 232 218 224 244 221 221 248 233 206 195 211 224 222 252 234 197 214 184 157 1 138 201 238 73 248 250 246 268 240 189 194 181 190 203 153 202 249 228 213 209 272 245 184 224 253 257 248 246 250 265 316 37 35 29 36 46 66 64 43 35 33 27 23 16 16
49 89 274 357 96 164 164 164 179 196 203 226 242 240 252 272 271 304 311 162 201 249 227 209 207 221 252 260 249 233 212 219 208 208 226 236 245 241 249 342 167 162 88 74 218 216 181 237 234 238 250 239 235 219 193 193 191 177 194 207 219 228 242 274 255 205 211 241 238 252 259 251 266 331 36 53 54 49 44 54 60 47 37 28 20 20 15 13
70 146 293 11 159 166 162 173 206 185 208 225 233 239 255 281 263 261 258 150 180 247 312 225 220 234 249 258 250 226 227 234 210 214 236 231 225 229 319 17 49 129 86 153 246 260 131 95 251 242 244 255 260 244 198 210 196 177 214 203 213 217 206 241 252 240 235 234 225 249 259 256 296 51 68 67 57 50 44 46 49 42 36 30 21 17 13 14
115 204 321 69 172 173 171 213 205 194 236 248 298 271 247 264 259 238 235 208 189 213 259 249 236 239 237 245 242 230 237 225 209 228 239 233 231 246 343 357 23 30 356 301 314 4 70 93 256 240 248 277 277 294 36 7 163 183 243 215 211 227 224 239 251 266 266 246 243 255 253 267 6 92 100 96 81 69 58 53 49 36 27 23 17 17 15 10
51 286 301 301 193 186 192 210 202 210 229 244 264 258 257 261 249 247 248 227 190 195 240 256 246 247 251 266 264 248 252 240 237 246 240 241 267 13 15 359 25 67 3 277 251 355 97 174 264 281 285 292 286 298 11 20 47 232 258 251 257 285 291 283 268 274 250 221 230 249 250 227 228 130 96 100 105 95 78 72 72 59 32 19 12 13 9 5
44 302 278 301 312 303 212 201 170 216 226 235 246 251 260 260 241 233 234 231 211 193 232 268 238 223 318 328 349 277 246 226 250 269 241 267 282 22 27 7 32 92 114 19 49 159 169 223 229 270 274 270 280 281 296 42 307 277 303 326 333 314 287 291 279 260 251 222 220 244 266 262 275 317 355 28 69 79 71 64 66 64 45 21 11 5 4 6
89 66 306 307 331 12 208 133 56 243 236 230 237 242 243 249 254 215 203 232 238 203 217 249 205 140 254 242 244 262 249 211 201 237 269 266 268 338 31 35 43 69 129 41 24 83 152 253 224 236 253 258 271 279 305 24 267 263 286 303 310 301 277 275 256 245 273 277 252 253 268 275 288 307 328 357 13 22 29 28 34 43 28 7 358 352 354 356
103 179 167 283 333 324 241 308 359 278 284 268 242 256 245 246 266 264 200 238 273 217 228 242 195 197 235 230 233 257 257 231 211 227 256 258 257 303 338 91 51 19 40 15 6 82 146 256 231 234 248 256 276 292 317 331 284 269 288 288 291 291 276 262 257 269 303 297 273 280 288 285 290 295 312 1 0 354 358 354 353 1 342 302 277 286 300 308
64 165 193 170 323 240 217 288 1 302 286 301 298 297 285 274 283 292 306 335 330 2 328 264 233 235 266 281 258 269 300 297 285 272 278 297 310 323 342 62 52 21 27 352 327 104 153 246 238 244 271 298 314 306 306 303 292 283 277 276 281 283 273 265 266 282 300 281 278 301 297 286 288 282 207 59 347 329 328 322 317 311 296 280 267 265 263 263
63 54 320 8 55 183 258 345 14 343 293 282 258 256 264 273 275 274 354 336 312 330 294 261 284 29 23 356 299 261 278 281 276 267 99 352 310 305 331 344 27 26 30 9 319 322 161 250 241 211 289 296 287 286 289 294 293 288 279 273 272 270 267 269 272 274 270 265 269 279 277 277 286 188 162 169 274 278 285 295 294 280 278 290 292 287 279 265
53 78 359 46 72 101 353 348 25 341 292 257 243 258 257 258 267 281 33 293 264 287 308 288 354 19 22 30 35 264 273 293 280 278 102 117 273 61 335 293 11 356 1 9 314 308 271 274 297 65 296 279 270 271 274 279 284 287 287 280 270 267 266 269 272 268 264 264 264 264 265 270 294 109 199 230 208 260 277 277 277 261 248 267 285 290 294 288
81 67 100 88 19 203 118 38 72 186 259 232 217 260 272 244 255 289 47 318 194 106 83 87 25 0 7 27 27 218 178 80 50 291 336 260 246 103 201 255 30 342 334 346 305 318 308 287 332 359 298 274 275 279 282 294 295 286 280 273 268 266 264 262 262 263 265 270 274 271 270 272 126 146 266 276 254 288 300 290 292 284 255 252 266 275 287 291
104 45 93 104 23 278 145 82 31 179 227 237 216 269 268 58 8 13 174 70 79 98 98 93 21 8 355 302 311 166 169 158 194 231 226 221 233 221 217 236 242 248 257 267 283 273 227 245 302 305 284 280 284 288 309 330 300 276 266 263 264 265 266 266 265 264 262 258 268 274 266 183 173 187 218 272 256 263 282 279 288 296 287 274 269 273 284 290